Weather History for Sheridan, WY

Change the Weather History Date:

Tuesday, October 16, 2012

  Actual Average Record
Temperature  
Mean Temperature 50 °F 46 °F  
Max Temperature 62 °F 60 °F 87 °F (1991)
Min Temperature 37 °F 31 °F 14 °F (1992)
Degree Days  
Heating Degree Days 15 20  
Month to date heating degree days 280 269  
Since 1 July heating degree days 430 572  
Cooling Degree Days 0 0  
Month to date cooling degree days 0 0  
Year to date cooling degree days 664 418  
Moisture  
Dew Point 39 °F    
Average Humidity 70    
Maximum Humidity 100    
Minimum Humidity 40    
Precipitation  
Precipitation 0.23 in 0.05 in 0.49 in (1979)
Month to date precipitation 0.72 0.86  
Year to date precipitation 7.71 12.34  
Sea Level Pressure  
Sea Level Pressure 29.58 in    
Wind  
Wind Speed 10 mph (NW)    
Max Wind Speed 38 mph    
Max Gust Speed 44 mph    
Visibility 9 miles    
Events Rain , Thunderstorm    
T = Trace of Precipitation, MM = Missing Value Source: NWS Daily Summary

Daily Weather History Graph

Daily Weather History Graph

Search for Another Location

Airport:

Trip Planner

Search our weather history database for the weather conditions in past years. The results will help you decide how hot, cold, wet, or windy it might be!

Date:

Astronomy

Oct. 16, 2012 Rise Set
Actual Time 7:25 AM MDT 6:20 PM MDT
Civil Twilight 6:55 AM MDT 6:50 PM MDT
Nautical Twilight 6:21 AM MDT 7:23 PM MDT
Astronomical Twilight 5:47 AM MDT 7:57 PM MDT
Moon 8:57 AM MDT (10/16) 7:01 PM MDT (10/16)
Length of Visible Light 11h 54m
Length of Day
10h 55m
New Moon, 2% of the Moon is Illuminated
Oct 16
New Moon
Oct 21
First Quarter
Oct 29
Full
Nov 6
Last Quarter
Nov 13
New

Hourly Weather History & Observations

Time (MDT) Temp. Windchill Dew Point Humidity Pressure Visibility Wind Dir Wind Speed Gust Speed Precip Events Conditions
12:53 AM 39.9 °F 37.8 °F 39.0 °F 97% 29.81 in 10.0 mi South 3.5 mph - N/A   Partly Cloudy
1:53 AM 41.0 °F - 39.0 °F 93% 29.78 in 10.0 mi Calm Calm - N/A   Clear
2:53 AM 37.9 °F 32.7 °F 36.0 °F 93% 29.76 in 10.0 mi South 6.9 mph - N/A   Clear
3:53 AM 39.0 °F 35.7 °F 37.0 °F 93% 29.73 in 10.0 mi South 4.6 mph - N/A   Clear
4:53 AM 39.0 °F 35.7 °F 36.0 °F 89% 29.70 in 10.0 mi WSW 4.6 mph - N/A   Clear
5:53 AM 41.0 °F 39.0 °F 37.4 °F 87% 29.67 in 10.0 mi North 3.5 mph - N/A   Clear
6:53 AM 37.9 °F 32.1 °F 36.0 °F 93% 29.62 in 10.0 mi NW 8.1 mph - N/A   Clear
7:53 AM 39.0 °F 34.8 °F 37.0 °F 93% 29.61 in 10.0 mi NW 5.8 mph - N/A   Clear
8:53 AM 42.1 °F 40.2 °F 39.9 °F 92% 29.58 in 10.0 mi SSE 3.5 mph - N/A   Partly Cloudy
9:53 AM 45.0 °F 43.5 °F 41.0 °F 86% 29.52 in 10.0 mi NNW 3.5 mph - N/A   Partly Cloudy
10:53 AM 48.0 °F - 43.0 °F 83% 29.50 in 10.0 mi NNW 12.7 mph - N/A   Mostly Cloudy
11:53 AM 50.0 °F - 44.1 °F 80% 29.46 in 10.0 mi WSW 5.8 mph - 0.00 in   Overcast
12:53 PM 54.0 °F - 46.0 °F 75% 29.45 in - NE 4.6 mph - N/A   Overcast
1:53 PM 61.0 °F - 45.0 °F 56% 29.35 in 10.0 mi Calm Calm - 0.00 in   Clear
2:53 PM 50.0 °F - 46.9 °F 89% 29.49 in 8.0 mi NNW 20.7 mph 35.7 mph 0.07 in Rain , Thunderstorm Light Rain
3:19 PM 50.0 °F - 46.4 °F 87% 29.50 in 10.0 mi Variable 4.6 mph - N/A   Overcast
3:53 PM 51.1 °F - 46.9 °F 86% 29.49 in 10.0 mi Variable 4.6 mph - 0.02 in   Overcast
4:34 PM 50.0 °F - 48.2 °F 94% 29.51 in 1.8 mi Variable 3.5 mph - 0.06 in Rain Rain
4:44 PM 50.0 °F - 46.4 °F 87% 29.50 in 3.0 mi Variable 4.6 mph - 0.10 in Rain Rain
4:53 PM 50.0 °F - 48.0 °F 93% 29.49 in 3.0 mi East 5.8 mph - 0.13 in Rain Rain
5:53 PM 48.9 °F - 46.9 °F 93% 29.47 in 10.0 mi SW 3.5 mph - 0.01 in   Mostly Cloudy
6:53 PM 51.1 °F - 43.0 °F 74% 29.51 in 10.0 mi NNW 26.5 mph 38.0 mph N/A   Mostly Cloudy
7:53 PM 48.0 °F - 37.0 °F 66% 29.57 in 10.0 mi NNW 13.8 mph - 0.00 in   Mostly Cloudy
8:53 PM 44.1 °F 37.4 °F 30.9 °F 60% 29.62 in 10.0 mi NNW 13.8 mph - N/A   Clear
9:53 PM 46.0 °F 37.6 °F 24.1 °F 42% 29.62 in 10.0 mi NW 24.2 mph 29.9 mph N/A   Clear
10:53 PM 43.0 °F 35.1 °F 23.0 °F 45% 29.68 in 10.0 mi NNW 17.3 mph - N/A   Mostly Cloudy
11:53 PM 44.1 °F 35.7 °F 21.0 °F 40% 29.70 in 10.0 mi NW 20.7 mph 26.5 mph N/A   Clear